Location: Mahannah Oil Field
(37.4664°N, 96.6003°W)
Time: 15:24:59
(UTC+00:00)

A-11 Canister half - Pass Details

Date: 30 January 2021
Orbit: 1525 x 1684 km, 47.3° (Epoch: 05 March)

Event Time Altitude Azimuth Distance (km) Brightness Sun altitude
Rises 02:50:07 0° 299° (WNW) 4,763 12.4 -36.3°
Reaches altitude 10° 02:53:21 10° 293° (WNW) 3,798 11.7 -36.9°
Maximum altitude 03:02:14 43° 227° (SW) 2,161 9.8 -38.7°
Enters shadow 03:05:11 35° 190° (S) 2,415 9.9 -39.3°
